Year,Month,Day,Hour,Minute,Value (Times are PST for temperature in C)
2015,06,24,00,00,18.10
2015,06,24,00,01,18.10
2015,06,24,00,02,18.00
2015,06,24,00,03,17.90
2015,06,24,00,04,17.90
2015,06,24,00,05,17.90
2015,06,24,00,06,17.90
2015,06,24,00,07,17.90
2015,06,24,00,08,17.90
2015,06,24,00,09,17.90
2015,06,24,00,10,17.90
2015,06,24,00,11,17.90
2015,06,24,00,12,17.90
2015,06,24,00,13,17.90
2015,06,24,00,14,17.90
2015,06,24,00,15,17.90
2015,06,24,00,16,17.90
2015,06,24,00,17,17.90
2015,06,24,00,18,17.90
2015,06,24,00,19,17.90
2015,06,24,00,20,17.90
2015,06,24,00,21,17.80
2015,06,24,00,22,17.80
2015,06,24,00,23,17.80
2015,06,24,00,24,17.80
2015,06,24,00,25,17.80
2015,06,24,00,26,17.80
2015,06,24,00,27,17.70
2015,06,24,00,28,17.70
2015,06,24,00,29,17.70
2015,06,24,00,30,17.70
2015,06,24,00,31,17.70
2015,06,24,00,32,17.70
2015,06,24,00,33,17.70
2015,06,24,00,34,17.70
2015,06,24,00,35,17.70
2015,06,24,00,36,17.70
2015,06,24,00,37,17.70
2015,06,24,00,38,17.70
2015,06,24,00,39,17.70
2015,06,24,00,40,17.70
2015,06,24,00,41,17.70
2015,06,24,00,42,17.70
2015,06,24,00,43,17.60
2015,06,24,00,44,17.60
2015,06,24,00,45,17.60
2015,06,24,00,46,17.60
2015,06,24,00,47,17.60
2015,06,24,00,48,17.60
2015,06,24,00,49,17.60
2015,06,24,00,50,17.60
2015,06,24,00,51,17.60
2015,06,24,00,52,17.60
2015,06,24,00,53,17.60
2015,06,24,00,54,17.60
2015,06,24,00,55,17.60
2015,06,24,00,56,17.60
2015,06,24,00,57,17.50
2015,06,24,00,58,17.50
2015,06,24,00,59,17.50
2015,06,24,01,00,17.50
2015,06,24,01,01,17.50
2015,06,24,01,02,17.50
2015,06,24,01,03,17.50
2015,06,24,01,04,17.50
2015,06,24,01,05,17.50
2015,06,24,01,06,17.50
2015,06,24,01,07,17.50
2015,06,24,01,08,17.50
2015,06,24,01,09,17.50
2015,06,24,01,10,17.50
2015,06,24,01,11,17.50
2015,06,24,01,12,17.50
2015,06,24,01,13,17.50
2015,06,24,01,14,17.40
2015,06,24,01,15,17.40
2015,06,24,01,16,17.40
2015,06,24,01,17,17.40
2015,06,24,01,18,17.40
2015,06,24,01,19,17.40
2015,06,24,01,20,17.40
2015,06,24,01,21,17.40
2015,06,24,01,22,17.40
2015,06,24,01,23,17.40
2015,06,24,01,24,17.40
2015,06,24,01,25,17.40
2015,06,24,01,26,17.40
2015,06,24,07,56,15.90
2015,06,24,07,57,15.80
2015,06,24,07,58,15.80
2015,06,24,07,59,15.80
2015,06,24,08,00,15.80
2015,06,24,08,01,15.80
2015,06,24,08,02,15.80
2015,06,24,08,03,15.80
2015,06,24,08,04,15.90
2015,06,24,08,05,16.00
2015,06,24,08,06,16.10
2015,06,24,08,07,16.20
2015,06,24,08,08,16.20
2015,06,24,08,09,16.20
2015,06,24,08,10,16.20
2015,06,24,08,11,16.30
2015,06,24,08,12,16.40
2015,06,24,08,13,16.40
2015,06,24,08,14,16.40
2015,06,24,08,15,16.40
2015,06,24,08,16,16.40
2015,06,24,08,17,16.40
2015,06,24,08,18,16.40
2015,06,24,08,19,17.00
2015,06,24,08,20,17.40
2015,06,24,08,21,17.40
2015,06,24,08,22,17.40
2015,06,24,08,23,17.40
2015,06,24,08,24,17.50
2015,06,24,08,25,17.50
2015,06,24,08,26,17.50
2015,06,24,08,27,17.50
2015,06,24,08,28,17.50
2015,06,24,08,29,17.50
2015,06,24,08,30,17.50
2015,06,24,08,31,17.40
2015,06,24,08,32,17.30
2015,06,24,08,33,17.20
2015,06,24,08,34,17.20
2015,06,24,08,35,17.20
2015,06,24,08,36,17.20
2015,06,24,08,37,17.10
2015,06,24,08,38,17.10
2015,06,24,08,39,17.10
2015,06,24,08,40,17.10
2015,06,24,08,41,17.10
2015,06,24,08,42,17.20
2015,06,24,08,43,17.30
2015,06,24,08,44,17.30
2015,06,24,08,45,17.40
2015,06,24,08,46,17.50
2015,06,24,08,47,17.70
2015,06,24,08,48,17.70
2015,06,24,08,49,17.80
2015,06,24,08,50,17.90
2015,06,24,08,51,17.90
2015,06,24,08,52,17.90
2015,06,24,08,53,17.90
2015,06,24,08,54,18.00
2015,06,24,08,55,18.10
2015,06,24,08,56,18.20
2015,06,24,08,57,18.30
2015,06,24,08,58,18.40
2015,06,24,08,59,18.50
2015,06,24,09,00,18.60
2015,06,24,09,01,18.70
2015,06,24,09,02,18.70
2015,06,24,09,03,18.90
2015,06,24,09,04,18.90
2015,06,24,09,05,19.00
2015,06,24,09,06,19.10
2015,06,24,09,07,19.10
2015,06,24,09,08,19.10
2015,06,24,09,09,19.00
2015,06,24,09,10,18.90
2015,06,24,09,11,18.90
2015,06,24,09,12,18.90
2015,06,24,09,13,18.90
2015,06,24,09,14,18.90
2015,06,24,09,15,18.80
2015,06,24,09,16,18.80
2015,06,24,09,17,18.70
2015,06,24,09,18,18.70
2015,06,24,09,19,18.70
2015,06,24,09,20,18.70
2015,06,24,09,21,18.70
2015,06,24,09,22,18.70
2015,06,24,09,23,18.60
2015,06,24,09,24,18.60
2015,06,24,09,25,18.50
2015,06,24,09,26,18.30
2015,06,24,09,27,18.20
2015,06,24,09,28,18.10
2015,06,24,09,29,18.10
2015,06,24,09,30,18.10
2015,06,24,09,31,18.00
2015,06,24,09,32,17.90
2015,06,24,09,33,17.90
2015,06,24,09,34,17.90
2015,06,24,09,35,18.00
2015,06,24,09,36,18.10
2015,06,24,09,37,18.20
2015,06,24,09,38,18.20
2015,06,24,09,39,18.30
2015,06,24,09,40,18.40
2015,06,24,09,41,18.40
2015,06,24,09,42,18.40
2015,06,24,09,43,18.40
2015,06,24,09,44,18.50
2015,06,24,09,45,18.50
2015,06,24,09,46,18.50
2015,06,24,09,47,18.50
2015,06,24,09,48,18.40
2015,06,24,09,49,18.30
2015,06,24,09,50,18.30
2015,06,24,09,51,18.30
2015,06,24,09,52,18.20
2015,06,24,09,53,18.20
2015,06,24,09,54,18.10
2015,06,24,09,55,17.90
2015,06,24,09,56,17.80
2015,06,24,09,57,17.70
2015,06,24,09,58,17.50
2015,06,24,09,59,17.50
2015,06,24,10,00,17.50
2015,06,24,10,01,17.50
2015,06,24,10,02,17.50
2015,06,24,10,03,17.50
2015,06,24,10,04,17.60
2015,06,24,10,05,17.70
2015,06,24,10,06,17.80
2015,06,24,10,07,17.90
2015,06,24,10,08,18.00
2015,06,24,10,09,18.10
2015,06,24,10,10,18.20
2015,06,24,10,11,18.20
2015,06,24,10,12,18.20
2015,06,24,10,13,18.20
2015,06,24,10,14,18.20
2015,06,24,10,15,18.20
2015,06,24,10,16,18.10
2015,06,24,10,17,18.00
2015,06,24,10,18,17.90
2015,06,24,10,19,17.90
2015,06,24,10,20,17.90
2015,06,24,10,21,17.80
2015,06,24,10,22,17.70
2015,06,24,10,23,17.70
2015,06,24,10,24,17.70
2015,06,24,10,25,17.60
2015,06,24,10,26,17.60
2015,06,24,10,27,17.60
2015,06,24,10,28,17.50
2015,06,24,10,29,17.50
2015,06,24,10,30,17.40
2015,06,24,10,31,17.40
2015,06,24,10,32,17.30
2015,06,24,10,33,17.30
2015,06,24,10,34,17.30
2015,06,24,10,35,17.30
2015,06,24,10,36,17.30
2015,06,24,10,37,17.30
2015,06,24,10,38,17.30
2015,06,24,10,39,17.30
2015,06,24,10,40,17.30
2015,06,24,10,41,17.30
2015,06,24,10,42,17.30
2015,06,24,10,43,17.40
2015,06,24,10,44,17.50
2015,06,24,10,45,17.50
2015,06,24,10,46,17.60
2015,06,24,10,47,17.60
2015,06,24,10,48,17.60
2015,06,24,10,49,17.70
2015,06,24,10,50,17.70
2015,06,24,10,51,17.80
2015,06,24,10,52,17.80
2015,06,24,10,53,17.90
2015,06,24,10,54,17.90
2015,06,24,10,55,18.00
2015,06,24,10,56,18.10
2015,06,24,10,57,18.20
2015,06,24,10,58,18.40
2015,06,24,10,59,18.50
2015,06,24,11,00,18.60
2015,06,24,11,01,18.80
2015,06,24,11,02,19.00
2015,06,24,11,03,19.10
2015,06,24,11,04,19.10
2015,06,24,11,05,19.50
2015,06,24,11,06,19.60
2015,06,24,11,07,19.70
2015,06,24,11,08,19.80
2015,06,24,11,09,19.90
2015,06,24,11,10,20.00
2015,06,24,11,11,20.10
2015,06,24,11,12,20.20
2015,06,24,11,13,20.20
2015,06,24,11,14,20.20
2015,06,24,11,15,20.30
2015,06,24,11,16,20.40
2015,06,24,11,17,20.50
2015,06,24,11,18,20.60
2015,06,24,11,19,20.60
2015,06,24,11,20,20.60
2015,06,24,11,21,20.60
2015,06,24,11,22,20.60
2015,06,24,11,23,20.60
2015,06,24,11,24,20.60
2015,06,24,11,25,20.60
2015,06,24,11,26,20.70
2015,06,24,11,27,20.70
2015,06,24,11,28,20.70
2015,06,24,11,29,20.80
2015,06,24,11,30,20.80
2015,06,24,11,31,20.80
2015,06,24,11,32,20.90
2015,06,24,11,33,20.90
2015,06,24,11,34,20.90
2015,06,24,11,35,20.90
2015,06,24,11,36,20.90
2015,06,24,11,37,20.90
2015,06,24,11,38,20.90
2015,06,24,11,39,20.90
2015,06,24,11,40,20.90
2015,06,24,11,41,21.00
2015,06,24,11,42,21.00
2015,06,24,11,43,21.00
2015,06,24,11,44,21.10
2015,06,24,11,45,21.10
2015,06,24,11,46,21.20
2015,06,24,11,47,21.20
2015,06,24,11,48,21.20
2015,06,24,11,49,21.20
2015,06,24,11,50,21.20
2015,06,24,11,51,21.10
2015,06,24,11,52,21.00
2015,06,24,11,53,21.00
2015,06,24,11,54,21.00
2015,06,24,11,55,21.00
2015,06,24,11,56,21.00
2015,06,24,11,57,21.00
2015,06,24,11,58,20.80
2015,06,24,11,59,20.80
2015,06,24,12,00,20.80
2015,06,24,12,01,20.80
2015,06,24,12,02,20.80
2015,06,24,12,03,20.80
2015,06,24,12,04,20.80
2015,06,24,12,05,20.90
2015,06,24,12,06,20.90
2015,06,24,12,07,20.90
2015,06,24,12,08,20.90
2015,06,24,12,09,20.80
2015,06,24,12,10,20.80
2015,06,24,12,11,20.80
2015,06,24,12,12,20.70
2015,06,24,12,13,20.70
2015,06,24,12,14,20.80
2015,06,24,12,15,20.80
2015,06,24,12,16,20.80
2015,06,24,12,17,20.80
2015,06,24,12,18,20.80
2015,06,24,12,19,20.80
2015,06,24,12,20,20.70
2015,06,24,12,21,20.70
2015,06,24,12,22,20.70
2015,06,24,12,23,20.80
2015,06,24,12,24,20.80
2015,06,24,12,25,20.80
2015,06,24,12,26,20.80
2015,06,24,12,27,20.70
2015,06,24,12,28,20.70
2015,06,24,12,29,20.70
2015,06,24,12,30,20.70
2015,06,24,12,31,20.70
2015,06,24,12,32,20.70
2015,06,24,12,33,20.70
2015,06,24,12,34,20.70
2015,06,24,12,35,20.70
2015,06,24,12,36,20.70
2015,06,24,12,37,20.80
2015,06,24,12,38,20.80
2015,06,24,12,39,20.80
2015,06,24,12,40,20.80
2015,06,24,12,41,20.90
2015,06,24,12,42,21.00
2015,06,24,12,43,21.00
2015,06,24,12,44,21.00
2015,06,24,12,45,21.10
2015,06,24,12,46,21.10
2015,06,24,12,47,21.10
2015,06,24,12,48,21.20
2015,06,24,12,49,21.20
2015,06,24,12,50,21.30
2015,06,24,12,51,21.30
2015,06,24,12,52,21.30
2015,06,24,12,53,21.30
2015,06,24,12,54,21.30
2015,06,24,12,55,21.20
2015,06,24,12,56,21.20
2015,06,24,12,57,21.20
2015,06,24,12,58,21.10
2015,06,24,12,59,21.00
2015,06,24,13,00,21.00
2015,06,24,13,01,21.00
2015,06,24,13,02,21.00
2015,06,24,13,03,20.90
2015,06,24,13,04,20.70
2015,06,24,13,05,20.60
2015,06,24,13,06,20.30
2015,06,24,13,07,20.10
2015,06,24,13,08,19.90
2015,06,24,13,09,19.70
2015,06,24,13,10,19.50
2015,06,24,13,11,19.40
2015,06,24,13,12,19.30
2015,06,24,13,13,19.20
2015,06,24,13,14,19.10
2015,06,24,13,15,18.90
2015,06,24,13,16,18.80
2015,06,24,13,17,18.70
2015,06,24,13,18,18.60
2015,06,24,13,19,18.50
2015,06,24,13,20,18.50
2015,06,24,13,21,18.40
2015,06,24,13,22,18.40
2015,06,24,13,23,18.40
2015,06,24,13,24,18.50
2015,06,24,13,25,18.50
2015,06,24,13,26,18.60
2015,06,24,13,27,18.80
2015,06,24,13,28,18.90
2015,06,24,13,29,19.00
2015,06,24,13,30,19.10
2015,06,24,13,31,19.20
2015,06,24,13,32,19.20
2015,06,24,13,33,19.30
2015,06,24,13,34,19.60
2015,06,24,13,35,19.70
2015,06,24,13,36,19.80
2015,06,24,13,37,19.90
2015,06,24,13,38,19.90
2015,06,24,13,39,19.90
2015,06,24,13,40,20.10
2015,06,24,13,41,20.20
2015,06,24,13,42,20.20
2015,06,24,13,43,20.30
2015,06,24,13,44,20.30
2015,06,24,13,45,20.30
2015,06,24,13,46,20.30
2015,06,24,13,47,20.40
2015,06,24,13,48,20.40
2015,06,24,13,49,20.50
2015,06,24,13,50,20.50
2015,06,24,13,51,20.50
2015,06,24,13,52,20.60
2015,06,24,13,53,20.60
2015,06,24,13,54,20.70
2015,06,24,13,55,20.80
2015,06,24,13,56,20.80
2015,06,24,13,57,20.80
2015,06,24,13,58,20.90
2015,06,24,13,59,20.90
2015,06,24,14,00,21.00
2015,06,24,14,01,21.00
2015,06,24,14,02,21.00
2015,06,24,14,03,21.10
2015,06,24,14,04,21.20
2015,06,24,14,05,21.30
2015,06,24,14,06,21.30
2015,06,24,14,07,21.40
2015,06,24,14,08,21.40
2015,06,24,14,09,21.40
2015,06,24,14,10,21.40
2015,06,24,14,11,21.40
2015,06,24,14,12,21.40
2015,06,24,14,13,21.40
2015,06,24,14,14,21.40
2015,06,24,14,15,21.40
2015,06,24,14,16,21.40
2015,06,24,14,17,21.40
2015,06,24,14,18,21.50
2015,06,24,14,19,21.60
2015,06,24,14,20,21.50
2015,06,24,14,21,21.40
2015,06,24,14,22,21.30
2015,06,24,14,23,21.30
2015,06,24,14,24,21.40
2015,06,24,14,25,21.50
2015,06,24,14,26,21.60
2015,06,24,14,27,21.60
2015,06,24,14,28,21.70
2015,06,24,14,29,21.80
2015,06,24,14,30,21.80
2015,06,24,14,31,21.80
2015,06,24,14,32,21.80
2015,06,24,14,33,21.80
2015,06,24,14,34,21.80
2015,06,24,14,35,21.80
2015,06,24,14,36,21.80
2015,06,24,14,37,21.70
2015,06,24,14,38,21.70
2015,06,24,14,39,21.70
2015,06,24,14,40,21.70
2015,06,24,14,41,21.70
2015,06,24,14,42,21.70
2015,06,24,14,43,21.80
2015,06,24,14,44,21.80
2015,06,24,14,45,21.70
2015,06,24,14,46,21.70
2015,06,24,14,47,21.80
2015,06,24,14,48,21.80
2015,06,24,14,49,21.80
2015,06,24,14,50,21.90
2015,06,24,14,51,21.90
2015,06,24,14,52,21.90
2015,06,24,14,53,22.00
2015,06,24,14,54,22.10
2015,06,24,14,55,22.20
2015,06,24,14,56,22.20
2015,06,24,14,57,22.20
2015,06,24,14,58,22.00
2015,06,24,14,59,22.00
2015,06,24,15,00,22.00
2015,06,24,15,01,22.00
2015,06,24,15,02,22.00
2015,06,24,15,03,22.00
2015,06,24,15,04,22.00
2015,06,24,15,05,22.00
2015,06,24,15,06,22.00
2015,06,24,15,07,22.00
2015,06,24,15,08,21.90
2015,06,24,15,09,21.80
2015,06,24,15,10,21.80
2015,06,24,15,11,21.80
2015,06,24,15,12,21.70
2015,06,24,15,13,21.70
2015,06,24,15,14,21.80
2015,06,24,15,15,21.80
2015,06,24,15,16,21.80
2015,06,24,15,17,21.80
2015,06,24,15,18,21.90
2015,06,24,15,19,21.90
2015,06,24,15,20,22.00
2015,06,24,15,21,22.10
2015,06,24,15,22,22.10
2015,06,24,15,23,22.10
2015,06,24,15,24,22.10
2015,06,24,15,25,22.00
2015,06,24,15,26,22.00
2015,06,24,15,27,21.90
2015,06,24,15,28,21.90
2015,06,24,15,29,21.90
2015,06,24,15,30,21.90
2015,06,24,15,31,21.90
2015,06,24,15,32,21.80
2015,06,24,15,33,21.80
2015,06,24,15,34,21.80
2015,06,24,15,35,21.80
2015,06,24,15,36,21.80
2015,06,24,15,37,21.80
2015,06,24,15,38,21.80
2015,06,24,15,39,21.80
2015,06,24,15,40,21.80
2015,06,24,15,41,21.90
2015,06,24,15,42,21.90
2015,06,24,15,43,22.00
2015,06,24,15,44,22.00
2015,06,24,15,45,22.10
2015,06,24,15,46,22.10
2015,06,24,15,47,22.10
2015,06,24,15,48,22.00
2015,06,24,15,49,22.00
2015,06,24,15,50,22.00
2015,06,24,15,51,21.90
2015,06,24,15,52,22.00
2015,06,24,15,53,22.00
2015,06,24,15,54,22.00
2015,06,24,15,55,22.00
2015,06,24,15,56,21.90
2015,06,24,15,57,21.90
2015,06,24,15,58,21.80
2015,06,24,15,59,21.80
2015,06,24,16,00,21.80
2015,06,24,16,01,21.80
2015,06,24,16,02,21.80
2015,06,24,16,03,21.80
2015,06,24,16,04,21.80
2015,06,24,16,05,21.80
2015,06,24,16,06,21.80
2015,06,24,16,07,21.80
2015,06,24,16,08,21.90
2015,06,24,16,09,21.90
2015,06,24,16,10,22.00
2015,06,24,16,11,21.90
2015,06,24,16,12,21.90
2015,06,24,16,13,21.90
2015,06,24,16,14,22.00
2015,06,24,16,15,22.10
2015,06,24,16,16,22.10
2015,06,24,16,17,22.20
2015,06,24,16,18,22.20
2015,06,24,16,19,22.30
2015,06,24,16,20,22.40
2015,06,24,16,21,22.50
2015,06,24,16,22,22.60
2015,06,24,16,23,22.70
2015,06,24,16,24,22.80
2015,06,24,16,25,22.80
2015,06,24,16,26,22.80
2015,06,24,16,27,22.80
2015,06,24,16,28,22.70
2015,06,24,16,29,22.70
2015,06,24,16,30,22.70
2015,06,24,16,31,22.70
2015,06,24,16,32,22.80
2015,06,24,16,33,22.90
2015,06,24,16,34,22.90
2015,06,24,16,35,22.90
2015,06,24,16,36,22.80
2015,06,24,16,37,22.70
2015,06,24,16,38,22.70
2015,06,24,16,39,22.70
2015,06,24,16,40,22.70
2015,06,24,16,41,22.80
2015,06,24,16,42,22.90
2015,06,24,16,43,23.10
2015,06,24,16,44,23.20
2015,06,24,16,45,23.20
2015,06,24,16,46,23.20
2015,06,24,16,47,23.10
2015,06,24,16,48,23.00
2015,06,24,16,49,22.90
2015,06,24,16,50,22.90
2015,06,24,16,51,22.90
2015,06,24,16,52,22.90
2015,06,24,16,53,22.90
2015,06,24,16,54,22.90
2015,06,24,16,55,23.00
2015,06,24,16,56,23.10
2015,06,24,16,57,23.10
2015,06,24,16,58,23.10
2015,06,24,16,59,23.10
2015,06,24,17,00,23.10
2015,06,24,17,01,23.10
2015,06,24,17,02,23.10
2015,06,24,17,03,23.10
2015,06,24,17,04,23.10
2015,06,24,17,05,23.10
2015,06,24,17,06,23.00
2015,06,24,17,07,22.90
2015,06,24,17,08,23.00
2015,06,24,17,09,23.10
2015,06,24,17,10,23.10
2015,06,24,17,11,23.10
2015,06,24,17,12,22.90
2015,06,24,17,13,22.90
2015,06,24,17,14,22.90
2015,06,24,17,15,23.00
2015,06,24,17,16,23.10
2015,06,24,17,17,23.00
2015,06,24,17,18,22.90
2015,06,24,17,19,22.90
2015,06,24,17,20,22.90
2015,06,24,17,21,22.90
2015,06,24,17,22,23.00
2015,06,24,17,23,23.20
2015,06,24,17,24,23.10
2015,06,24,17,25,23.00
2015,06,24,17,26,22.90
2015,06,24,17,27,22.70
2015,06,24,17,28,22.60
2015,06,24,17,29,22.30
2015,06,24,17,30,22.00
2015,06,24,17,31,21.90
2015,06,24,17,32,21.70
2015,06,24,17,33,21.60
2015,06,24,17,34,21.40
2015,06,24,17,35,21.30
2015,06,24,17,36,21.30
2015,06,24,17,37,21.30
2015,06,24,17,38,21.30
2015,06,24,17,39,21.30
2015,06,24,17,40,21.30
2015,06,24,17,41,21.30
2015,06,24,17,42,21.30
2015,06,24,17,43,21.40
2015,06,24,17,44,21.30
2015,06,24,17,45,21.30
2015,06,24,17,46,21.40
2015,06,24,17,47,21.50
2015,06,24,17,48,21.60
2015,06,24,17,49,21.50
2015,06,24,17,50,21.60
2015,06,24,17,51,21.60
2015,06,24,17,52,21.60
2015,06,24,17,53,21.60
2015,06,24,17,54,21.60
2015,06,24,17,55,21.60
2015,06,24,17,56,21.60
2015,06,24,17,57,21.70
2015,06,24,17,58,21.80
2015,06,24,17,59,21.90
2015,06,24,18,00,22.00
2015,06,24,18,01,22.00
2015,06,24,18,02,22.10
2015,06,24,18,03,22.10
2015,06,24,18,04,22.10
2015,06,24,18,05,22.10
2015,06,24,18,06,22.00
2015,06,24,18,07,22.00
2015,06,24,18,08,21.90
2015,06,24,18,09,21.80
2015,06,24,18,10,21.90
2015,06,24,18,11,22.00
2015,06,24,18,12,22.00
2015,06,24,18,13,22.10
2015,06,24,18,14,22.00
2015,06,24,18,15,21.90
2015,06,24,18,16,21.70
2015,06,24,18,17,21.60
2015,06,24,18,18,21.60
2015,06,24,18,19,21.50
2015,06,24,18,20,21.40
2015,06,24,18,21,21.30
2015,06,24,18,22,21.30
2015,06,24,18,23,21.30
2015,06,24,18,24,21.30
2015,06,24,18,25,21.20
2015,06,24,18,26,21.10
2015,06,24,18,27,21.00
2015,06,24,18,28,20.80
2015,06,24,18,29,20.60
2015,06,24,18,30,20.50
2015,06,24,18,31,20.30
2015,06,24,18,32,20.30
2015,06,24,18,33,20.20
2015,06,24,18,34,20.20
2015,06,24,18,35,20.20
2015,06,24,18,36,20.20
2015,06,24,18,37,20.20
2015,06,24,18,38,20.20
2015,06,24,18,39,20.20
2015,06,24,18,40,20.20
2015,06,24,18,41,20.30
2015,06,24,18,42,20.30
2015,06,24,18,43,20.40
2015,06,24,18,44,20.40
2015,06,24,18,45,20.40
2015,06,24,18,46,20.50
2015,06,24,18,47,20.50
2015,06,24,18,48,20.50
2015,06,24,18,49,20.60
2015,06,24,18,50,20.60
2015,06,24,18,51,20.60
2015,06,24,18,52,20.50
2015,06,24,18,53,20.50
2015,06,24,18,54,20.50
2015,06,24,18,55,20.50
2015,06,24,18,56,20.50
2015,06,24,18,57,20.40
2015,06,24,18,58,20.40
2015,06,24,18,59,20.40
2015,06,24,19,00,20.40
2015,06,24,19,01,20.40
2015,06,24,19,02,20.40
2015,06,24,19,03,20.40
2015,06,24,19,04,20.60
2015,06,24,19,05,20.60
2015,06,24,19,06,20.60
2015,06,24,19,07,20.60
2015,06,24,19,08,20.70
2015,06,24,19,09,20.70
2015,06,24,19,10,20.70
2015,06,24,19,11,20.70
2015,06,24,19,12,20.60
2015,06,24,19,13,20.50
2015,06,24,19,14,20.50
2015,06,24,19,15,20.50
2015,06,24,19,16,20.50
2015,06,24,19,17,20.00
2015,06,24,19,18,19.80
2015,06,24,19,19,19.80
2015,06,24,19,20,19.80
2015,06,24,19,21,19.70
2015,06,24,19,22,19.70
2015,06,24,19,23,19.60
2015,06,24,19,24,19.60
2015,06,24,19,25,19.60
2015,06,24,19,26,19.50
2015,06,24,19,27,19.50
2015,06,24,19,28,19.50
2015,06,24,19,29,19.50
2015,06,24,19,30,19.50
2015,06,24,19,31,19.50
2015,06,24,19,32,19.40
2015,06,24,19,33,19.40
2015,06,24,19,34,19.40
2015,06,24,19,35,19.40
2015,06,24,19,36,19.40
2015,06,24,19,37,19.40
2015,06,24,19,38,19.40
2015,06,24,19,39,19.30
2015,06,24,19,40,19.20
2015,06,24,19,41,19.20
2015,06,24,19,42,19.20
2015,06,24,19,43,19.20
2015,06,24,19,44,19.10
2015,06,24,19,45,19.10
2015,06,24,19,46,19.10
2015,06,24,19,47,19.10
2015,06,24,19,48,19.10
2015,06,24,19,49,18.90
2015,06,24,19,50,18.90
2015,06,24,19,51,18.90
2015,06,24,19,52,18.80
2015,06,24,19,53,18.70
2015,06,24,19,54,18.70
2015,06,24,19,55,18.60
2015,06,24,19,56,18.50
2015,06,24,19,57,18.40
2015,06,24,19,58,18.40
2015,06,24,19,59,18.30
2015,06,24,20,00,18.20
2015,06,24,20,01,18.20
2015,06,24,20,02,18.10
2015,06,24,20,03,18.00
2015,06,24,20,04,17.90
2015,06,24,20,05,17.90
2015,06,24,20,06,17.80
2015,06,24,20,07,17.70
2015,06,24,20,08,17.70
2015,06,24,20,09,17.60
2015,06,24,20,10,17.60
2015,06,24,20,11,17.60
2015,06,24,20,12,17.60
2015,06,24,20,13,17.60
2015,06,24,20,14,17.50
2015,06,24,20,15,17.50
2015,06,24,20,16,17.50
2015,06,24,20,17,17.50
2015,06,24,20,18,17.50
2015,06,24,20,19,17.50
2015,06,24,20,20,17.50
2015,06,24,20,21,17.60
2015,06,24,20,22,17.70
2015,06,24,20,23,17.70
2015,06,24,20,24,17.80
2015,06,24,20,25,17.80
2015,06,24,20,26,17.80
2015,06,24,20,27,17.90
2015,06,24,20,28,17.90
2015,06,24,20,29,17.90
2015,06,24,20,30,17.90
2015,06,24,20,31,18.00
2015,06,24,20,32,18.10
2015,06,24,20,33,18.20
2015,06,24,20,34,18.20
2015,06,24,20,35,18.20
2015,06,24,20,36,18.10
2015,06,24,20,37,18.10
2015,06,24,20,38,18.10
2015,06,24,20,39,18.10
2015,06,24,20,40,18.00
2015,06,24,20,41,17.90
2015,06,24,20,42,17.90
2015,06,24,20,43,17.90
2015,06,24,20,44,17.90
2015,06,24,20,45,17.90
2015,06,24,20,46,17.90
2015,06,24,20,47,17.90
2015,06,24,20,48,17.90
2015,06,24,20,49,17.80
2015,06,24,20,50,17.80
2015,06,24,20,51,17.80
2015,06,24,20,52,17.70
2015,06,24,20,53,17.70
2015,06,24,20,54,17.70
2015,06,24,20,55,17.70
2015,06,24,20,56,17.60
2015,06,24,20,57,17.50
2015,06,24,20,58,17.50
2015,06,24,20,59,17.50
2015,06,24,21,00,17.50
2015,06,24,21,01,17.40
2015,06,24,21,02,17.40
2015,06,24,21,03,17.30
2015,06,24,21,04,17.30
2015,06,24,21,05,17.30
2015,06,24,21,06,17.30
2015,06,24,21,07,17.20
2015,06,24,21,08,17.20
2015,06,24,21,09,17.20
2015,06,24,21,10,17.20
2015,06,24,21,11,17.10
2015,06,24,21,12,17.10
2015,06,24,21,13,17.10
2015,06,24,21,14,17.10
2015,06,24,21,15,17.10
2015,06,24,21,16,17.00
2015,06,24,21,17,17.00
2015,06,24,21,18,17.00
2015,06,24,21,19,16.90
2015,06,24,21,20,16.90
2015,06,24,21,21,16.90
2015,06,24,21,22,16.90
2015,06,24,21,23,16.90
2015,06,24,21,24,16.90
2015,06,24,21,25,16.90
2015,06,24,21,26,16.90
2015,06,24,21,27,16.90
2015,06,24,21,28,16.90
2015,06,24,21,29,16.90
2015,06,24,21,30,16.90
2015,06,24,21,31,16.90
2015,06,24,21,32,16.90
2015,06,24,21,33,16.90
2015,06,24,21,34,16.90
2015,06,24,21,35,16.90
2015,06,24,21,36,16.80
2015,06,24,21,37,16.80
2015,06,24,21,38,16.80
2015,06,24,21,39,16.80
2015,06,24,21,40,16.80
2015,06,24,21,41,16.80
2015,06,24,21,42,16.80
2015,06,24,21,43,16.80
2015,06,24,21,44,16.80
2015,06,24,21,45,16.80
2015,06,24,21,46,16.80
2015,06,24,21,47,16.80
2015,06,24,21,48,16.80
2015,06,24,21,49,16.80
2015,06,24,21,50,16.80
2015,06,24,21,51,16.80
2015,06,24,21,52,16.80
2015,06,24,21,53,16.80
2015,06,24,21,54,16.80
2015,06,24,21,55,16.80
2015,06,24,21,56,16.80
2015,06,24,21,57,16.70
2015,06,24,21,58,16.70
2015,06,24,21,59,16.70
2015,06,24,22,00,16.70
2015,06,24,22,01,16.70
2015,06,24,22,02,16.70
2015,06,24,22,03,16.70
2015,06,24,22,04,16.70
2015,06,24,22,05,16.70
2015,06,24,22,06,16.70
2015,06,24,22,07,16.70
2015,06,24,22,08,16.70
2015,06,24,22,09,16.70
2015,06,24,22,10,16.70
2015,06,24,22,11,16.60
2015,06,24,22,12,16.60
2015,06,24,22,13,16.60
2015,06,24,22,14,16.50
2015,06,24,22,15,16.40
2015,06,24,22,16,16.40
2015,06,24,22,17,16.40
2015,06,24,22,18,16.40
2015,06,24,22,19,16.30
2015,06,24,22,20,16.30
2015,06,24,22,21,16.30
2015,06,24,22,22,16.30
2015,06,24,22,23,16.30
2015,06,24,22,24,16.30
2015,06,24,22,25,16.30
2015,06,24,22,26,16.20
2015,06,24,22,27,16.20
2015,06,24,22,28,16.20
2015,06,24,22,29,16.20
2015,06,24,22,30,16.20
2015,06,24,22,31,16.20
2015,06,24,22,32,16.20
2015,06,24,22,33,16.30
2015,06,24,22,34,16.30
2015,06,24,22,35,16.30
2015,06,24,22,36,16.30
2015,06,24,22,37,16.30
2015,06,24,22,38,16.30
2015,06,24,22,39,16.30
2015,06,24,22,40,16.30
2015,06,24,22,41,16.30
2015,06,24,22,42,16.40
2015,06,24,22,43,16.40
2015,06,24,22,44,16.40
2015,06,24,22,45,16.40
2015,06,24,22,46,16.40
2015,06,24,22,47,16.40
2015,06,24,22,48,16.40
2015,06,24,22,49,16.40
2015,06,24,22,50,16.40
2015,06,24,22,51,16.40
2015,06,24,22,52,16.40
2015,06,24,22,53,16.60
2015,06,24,22,54,16.60
2015,06,24,22,55,16.60
2015,06,24,22,56,16.70
2015,06,24,22,57,16.70
2015,06,24,22,58,16.70
2015,06,24,22,59,16.70
2015,06,24,23,00,16.70
2015,06,24,23,01,16.70
2015,06,24,23,02,16.70
2015,06,24,23,03,16.70
2015,06,24,23,04,16.70
2015,06,24,23,05,16.80
2015,06,24,23,06,16.90
2015,06,24,23,07,16.90
2015,06,24,23,08,16.90
2015,06,24,23,09,16.90
2015,06,24,23,10,17.00
2015,06,24,23,11,17.00
2015,06,24,23,12,17.10
2015,06,24,23,13,17.10
2015,06,24,23,14,17.10
2015,06,24,23,15,17.10
2015,06,24,23,16,17.10
2015,06,24,23,17,17.20
2015,06,24,23,18,17.20
2015,06,24,23,19,17.20
2015,06,24,23,20,17.20
2015,06,24,23,21,17.20
2015,06,24,23,22,17.20
2015,06,24,23,23,17.20
2015,06,24,23,24,17.30
2015,06,24,23,25,17.30
2015,06,24,23,26,17.30
2015,06,24,23,27,17.30
2015,06,24,23,28,17.30
2015,06,24,23,29,17.30
2015,06,24,23,30,17.30
2015,06,24,23,31,17.30
2015,06,24,23,32,17.30
2015,06,24,23,33,17.30
2015,06,24,23,34,17.30
2015,06,24,23,35,17.30
2015,06,24,23,36,17.30
2015,06,24,23,37,17.30
2015,06,24,23,38,17.20
2015,06,24,23,39,17.20
2015,06,24,23,40,17.20
2015,06,24,23,41,17.20
2015,06,24,23,42,17.10
2015,06,24,23,43,17.10
2015,06,24,23,44,17.10
2015,06,24,23,45,17.10
2015,06,24,23,46,17.10
2015,06,24,23,47,17.10
2015,06,24,23,48,17.00